SAUDISAT 5B

Last updated on Mon Jun 22 2026 00:02:52 GMT+0000 (Coordinated Universal Time)

1 43833U 18102C 26172.50492490 .00004101 00000+0 15100-3 0 9999 2 43833 97.3172 237.0803 0011895 117.9515 242.2930 15.28339783416459
UTC large
Height (km)
Speed (km/s)
/
Latitude / Longitude
Inclination (degrees)
Orbital Period (minutes)
Azimuth
Elevation
Range (km)
Doppler Factor

Next 0 passes for location: London (51.5072 / 0.1276)

No passes found over London.
SAUDISAT 5B